Location: Rochester
(43.1610°N, 77.6109°W)
Time: 01:05:04
(UTC-04:00)

Oscar 11 - Visible Passes

Search period start: 18 October 2021 00:00
Search period end: 28 October 2021 00:00
Orbit: 612 x 625 km, 97.6° (Epoch: 17 October)

Date Brightness Start Highest point End Pass type
(mag) Time Alt. Az. Time Alt. Az. Time Alt. Az.
18 Oct 10.5 05:28:34 10° ENE 05:30:25 12° E 05:32:16 10° ESE visible
19 Oct 10.0 05:44:23 10° NE 05:47:29 19° E 05:50:33 10° SE visible
20 Oct 9.3 06:00:44 10° NE 06:04:29 28° E 06:08:13 10° SSE visible
21 Oct 8.5 06:17:19 10° NNE 06:21:27 42° E 06:25:34 10° S visible
21 Oct 10.2 18:49:34 10° SW 18:52:50 21° W 18:56:06 10° NW visible
22 Oct 7.5 06:34:03 10° NNE 06:38:23 66° E 06:42:41 10° S visible
22 Oct 10.5 19:07:37 10° WSW 19:09:51 14° W 19:12:07 10° WNW visible
23 Oct 7.0 06:50:54 10° N 06:55:16 81° WNW 06:59:36 10° SSW visible
24 Oct 10.3 05:33:15 10° ENE 05:35:40 15° E 05:38:05 10° SE visible
25 Oct 9.7 05:49:20 10° NE 05:52:43 22° E 05:56:04 10° SE visible
26 Oct 9.0 06:05:47 10° NNE 06:09:42 32° E 06:13:37 10° SSE visible
26 Oct 9.6 18:37:23 10° SSW 18:41:02 27° W 18:44:43 10° NW visible
27 Oct 8.1 06:22:25 10° NNE 06:26:39 49° E 06:30:52 10° S visible
27 Oct 10.2 18:55:04 10° SW 18:58:02 18° W 19:01:02 10° NW visible
